Time,TemperatureF,DewpointF,PressureIn,WindDirection,WindDirectionDegrees,WindSpeedMPH,WindSpeedGustMPH,Humidity,HourlyPrecipIn,Conditions,Clouds,dailyrainin,SoftwareType,DateUTC
2013-04-20 00:07:00,46.5,40.0,30.16,WSW,240,3.0,7.0,77,0.00,,,0.00,weatherlink.com 1.10,2013-04-19 23:07:00,
2013-04-20 00:22:00,45.6,39.0,30.16,SSW,203,5.0,6.0,77,0.00,,,0.00,weatherlink.com 1.10,2013-04-19 23:22:00,
2013-04-20 00:37:00,45.2,39.0,30.16,WSW,238,4.0,7.0,78,0.00,,,0.00,weatherlink.com 1.10,2013-04-19 23:37:00,
2013-04-20 00:52:00,44.5,39.0,30.16,SW,225,3.0,6.0,80,0.00,,,0.00,weatherlink.com 1.10,2013-04-19 23:52:00,
2013-04-20 01:07:00,44.0,39.0,30.16,WSW,246,2.0,5.0,82,0.00,,,0.00,weatherlink.com 1.10,2013-04-20 00:07:00,
2013-04-20 01:22:00,43.9,39.0,30.16,WSW,250,6.0,7.0,83,0.00,,,0.00,weatherlink.com 1.10,2013-04-20 00:22:00,
2013-04-20 01:37:00,44.3,39.0,30.16,WSW,250,3.0,7.0,83,0.00,,,0.00,weatherlink.com 1.10,2013-04-20 00:37:00,
2013-04-20 01:52:00,44.9,40.0,30.16,West,263,5.0,6.0,82,0.00,,,0.00,weatherlink.com 1.10,2013-04-20 00:52:00,
2013-04-20 02:07:00,45.1,40.0,30.15,SW,215,4.0,7.0,81,0.00,,,0.00,weatherlink.com 1.10,2013-04-20 01:07:00,
2013-04-20 02:23:00,44.9,39.0,30.15,WNW,294,1.0,6.0,81,0.00,,,0.00,weatherlink.com 1.10,2013-04-20 01:23:00,
2013-04-20 02:38:00,44.0,39.0,30.15,West,273,5.0,8.0,81,0.00,,,0.00,weatherlink.com 1.10,2013-04-20 01:38:00,
2013-04-20 02:53:00,43.8,39.0,30.15,West,263,4.0,7.0,82,0.00,,,0.00,weatherlink.com 1.10,2013-04-20 01:53:00,
2013-04-20 03:08:00,43.4,38.0,30.15,NW,319,0.0,7.0,82,0.00,,,0.00,weatherlink.com 1.10,2013-04-20 02:08:00,
2013-04-20 03:24:00,42.9,38.0,30.15,West,267,1.0,4.0,83,0.00,,,0.00,weatherlink.com 1.10,2013-04-20 02:24:00,
2013-04-20 03:38:00,43.6,38.0,30.15,West,264,1.0,5.0,82,0.00,,,0.00,weatherlink.com 1.10,2013-04-20 02:38:00,
2013-04-20 03:53:00,43.9,38.0,30.14,West,271,3.0,7.0,80,0.00,,,0.00,weatherlink.com 1.10,2013-04-20 02:53:00,
2013-04-20 04:08:00,43.4,38.0,30.14,SW,225,3.0,5.0,81,0.00,,,0.00,weatherlink.com 1.10,2013-04-20 03:08:00,
2013-04-20 04:23:00,43.1,38.0,30.14,NNW,328,1.0,3.0,82,0.00,,,0.00,weatherlink.com 1.10,2013-04-20 03:23:00,
2013-04-20 04:38:00,43.3,39.0,30.14,SW,233,5.0,5.0,83,0.00,,,0.00,weatherlink.com 1.10,2013-04-20 03:38:00,
2013-04-20 04:53:00,43.6,38.0,30.14,NNW,340,0.0,6.0,81,0.00,,,0.00,weatherlink.com 1.10,2013-04-20 03:53:00,
2013-04-20 05:08:00,43.3,38.0,30.13,SW,231,7.0,7.0,81,0.00,,,0.00,weatherlink.com 1.10,2013-04-20 04:08:00,
2013-04-20 05:23:00,42.9,37.0,30.13,WSW,240,4.0,7.0,81,0.00,,,0.00,weatherlink.com 1.10,2013-04-20 04:23:00,
2013-04-20 05:38:00,42.7,37.0,30.13,WSW,249,4.0,5.0,81,0.00,,,0.00,weatherlink.com 1.10,2013-04-20 04:38:00,
2013-04-20 05:53:00,42.5,37.0,30.12,WSW,258,4.0,7.0,81,0.00,,,0.00,weatherlink.com 1.10,2013-04-20 04:53:00,
2013-04-20 06:08:00,42.4,37.0,30.13,WSW,238,5.0,6.0,81,0.00,,,0.00,weatherlink.com 1.10,2013-04-20 05:08:00,
2013-04-20 06:23:00,42.4,37.0,30.12,SW,235,5.0,7.0,80,0.00,,,0.00,weatherlink.com 1.10,2013-04-20 05:23:00,
2013-04-20 06:38:00,43.0,37.0,30.13,WSW,240,5.0,5.0,79,0.00,,,0.00,weatherlink.com 1.10,2013-04-20 05:38:00,
2013-04-20 06:55:00,44.6,37.0,30.13,SW,219,3.0,6.0,76,0.00,,,0.00,weatherlink.com 1.10,2013-04-20 05:55:00,
2013-04-20 07:08:00,45.8,38.0,30.13,NNW,333,2.0,5.0,74,0.00,,,0.00,weatherlink.com 1.10,2013-04-20 06:08:00,
2013-04-20 07:23:00,45.9,38.0,30.13,West,271,0.0,2.0,74,0.00,,,0.00,weatherlink.com 1.10,2013-04-20 06:23:00,
2013-04-20 07:38:00,47.6,39.0,30.13,NW,304,1.0,5.0,73,0.00,,,0.00,weatherlink.com 1.10,2013-04-20 06:38:00,
2013-04-20 07:53:00,49.4,40.0,30.13,SSW,212,1.0,7.0,69,0.00,,,0.00,weatherlink.com 1.10,2013-04-20 06:53:00,
2013-04-20 08:08:00,50.1,40.0,30.14,West,275,5.0,6.0,68,0.00,,,0.00,weatherlink.com 1.10,2013-04-20 07:08:00,
2013-04-20 08:23:00,50.6,40.0,30.14,NNW,335,3.0,7.0,66,0.00,,,0.00,weatherlink.com 1.10,2013-04-20 07:23:00,
2013-04-20 08:38:00,50.8,40.0,30.14,West,270,4.0,10.0,66,0.00,,,0.00,weatherlink.com 1.10,2013-04-20 07:38:00,
2013-04-20 08:53:00,50.9,40.0,30.14,West,262,7.0,12.0,67,0.00,,,0.00,weatherlink.com 1.10,2013-04-20 07:53:00,
2013-04-20 09:08:00,51.3,41.0,30.13,NW,316,4.0,13.0,67,0.00,,,0.00,weatherlink.com 1.10,2013-04-20 08:08:00,
2013-04-20 09:23:00,50.8,41.0,30.13,WSW,257,13.0,16.0,68,0.00,,,0.00,weatherlink.com 1.10,2013-04-20 08:23:00,
2013-04-20 09:38:00,51.8,41.0,30.13,WSW,243,5.0,9.0,68,0.00,,,0.00,weatherlink.com 1.10,2013-04-20 08:38:00,
2013-04-20 09:53:00,52.1,41.0,30.13,NW,318,4.0,11.0,67,0.00,,,0.00,weatherlink.com 1.10,2013-04-20 08:53:00,
2013-04-20 10:08:00,52.0,40.0,30.13,South,172,2.0,14.0,65,0.00,,,0.00,weatherlink.com 1.10,2013-04-20 09:08:00,
2013-04-20 10:23:00,52.7,41.0,30.12,West,269,7.0,15.0,64,0.00,,,0.00,weatherlink.com 1.10,2013-04-20 09:23:00,
2013-04-20 10:38:00,53.0,41.0,30.12,West,259,10.0,14.0,63,0.00,,,0.00,weatherlink.com 1.10,2013-04-20 09:38:00,
2013-04-20 10:54:00,53.4,40.0,30.11,West,280,3.0,13.0,62,0.00,,,0.00,weatherlink.com 1.10,2013-04-20 09:54:00,
2013-04-20 11:09:00,53.6,40.0,30.11,WSW,243,6.0,15.0,60,0.00,,,0.00,weatherlink.com 1.10,2013-04-20 10:09:00,
2013-04-20 11:24:00,54.1,40.0,30.11,West,273,4.0,13.0,60,0.00,,,0.00,weatherlink.com 1.10,2013-04-20 10:24:00,
2013-04-20 11:39:00,53.7,40.0,30.10,WSW,243,2.0,14.0,60,0.00,,,0.00,weatherlink.com 1.10,2013-04-20 10:39:00,
2013-04-20 11:54:00,53.7,40.0,30.10,WSW,248,9.0,13.0,60,0.00,,,0.00,weatherlink.com 1.10,2013-04-20 10:54:00,
2013-04-20 12:09:00,53.2,39.0,30.09,SW,224,10.0,21.0,60,0.00,,,0.00,weatherlink.com 1.10,2013-04-20 11:09:00,
2013-04-20 12:24:00,54.3,39.0,30.09,SW,218,12.0,17.0,56,0.00,,,0.00,weatherlink.com 1.10,2013-04-20 11:24:00,
2013-04-20 12:39:00,54.7,40.0,30.08,SW,217,16.0,18.0,57,0.00,,,0.00,weatherlink.com 1.10,2013-04-20 11:39:00,
2013-04-20 12:54:00,55.2,39.0,30.08,SW,235,15.0,18.0,55,0.00,,,0.00,weatherlink.com 1.10,2013-04-20 11:54:00,
2013-04-20 13:09:00,55.2,39.0,30.08,NW,308,16.0,20.0,55,0.00,,,0.00,weatherlink.com 1.10,2013-04-20 12:09:00,
2013-04-20 13:24:00,55.7,40.0,30.08,NW,317,5.0,17.0,56,0.00,,,0.00,weatherlink.com 1.10,2013-04-20 12:24:00,
2013-04-20 13:39:00,56.0,40.0,30.07,WSW,240,12.0,22.0,56,0.00,,,0.00,weatherlink.com 1.10,2013-04-20 12:39:00,
2013-04-20 13:54:00,55.4,41.0,30.07,NW,308,3.0,17.0,58,0.00,,,0.00,weatherlink.com 1.10,2013-04-20 12:54:00,
2013-04-20 14:09:00,55.7,40.0,30.06,NW,321,7.0,14.0,56,0.00,,,0.00,weatherlink.com 1.10,2013-04-20 13:09:00,
2013-04-20 14:24:00,56.3,41.0,30.05,West,267,7.0,15.0,56,0.00,,,0.00,weatherlink.com 1.10,2013-04-20 13:24:00,
2013-04-20 14:39:00,56.7,41.0,30.05,NW,325,9.0,19.0,57,0.00,,,0.00,weatherlink.com 1.10,2013-04-20 13:39:00,
2013-04-20 14:54:00,56.2,41.0,30.04,West,280,10.0,17.0,57,0.00,,,0.00,weatherlink.com 1.10,2013-04-20 13:54:00,
2013-04-20 15:09:00,56.2,40.0,30.03,West,278,3.0,16.0,54,0.00,,,0.00,weatherlink.com 1.10,2013-04-20 14:09:00,
2013-04-20 15:24:00,55.5,40.0,30.03,NW,326,5.0,17.0,56,0.00,,,0.00,weatherlink.com 1.10,2013-04-20 14:24:00,
2013-04-20 15:39:00,55.7,40.0,30.02,NW,314,6.0,15.0,55,0.00,,,0.00,weatherlink.com 1.10,2013-04-20 14:39:00,
2013-04-20 15:54:00,55.0,40.0,30.02,WNW,302,7.0,19.0,58,0.00,,,0.00,weatherlink.com 1.10,2013-04-20 14:54:00,
2013-04-20 16:09:00,54.6,41.0,30.02,NW,314,8.0,17.0,61,0.00,,,0.00,weatherlink.com 1.10,2013-04-20 15:09:00,
2013-04-20 16:24:00,54.6,41.0,30.01,SW,228,9.0,14.0,61,0.00,,,0.00,weatherlink.com 1.10,2013-04-20 15:24:00,
2013-04-20 16:39:00,54.2,41.0,30.00,West,278,9.0,16.0,62,0.00,,,0.00,weatherlink.com 1.10,2013-04-20 15:39:00,
2013-04-20 16:55:00,53.9,41.0,30.00,WSW,253,9.0,17.0,63,0.00,,,0.00,weatherlink.com 1.10,2013-04-20 15:55:00,
2013-04-20 17:10:00,54.0,42.0,30.00,WNW,302,8.0,16.0,64,0.00,,,0.00,weatherlink.com 1.10,2013-04-20 16:10:00,
2013-04-20 17:25:00,53.4,41.0,29.99,WNW,285,8.0,15.0,64,0.00,,,0.00,weatherlink.com 1.10,2013-04-20 16:25:00,
2013-04-20 17:40:00,52.8,42.0,29.99,West,267,13.0,17.0,67,0.00,,,0.00,weatherlink.com 1.10,2013-04-20 16:40:00,
2013-04-20 17:55:00,52.8,42.0,29.98,SW,232,9.0,22.0,68,0.00,,,0.00,weatherlink.com 1.10,2013-04-20 16:55:00,
2013-04-20 18:10:00,52.8,42.0,29.98,WNW,297,20.0,20.0,67,0.00,,,0.00,weatherlink.com 1.10,2013-04-20 17:10:00,
2013-04-20 18:25:00,52.4,42.0,29.97,WNW,288,9.0,19.0,69,0.00,,,0.00,weatherlink.com 1.10,2013-04-20 17:25:00,
2013-04-20 18:40:00,52.0,42.0,29.97,West,273,12.0,15.0,70,0.00,,,0.00,weatherlink.com 1.10,2013-04-20 17:40:00,
2013-04-20 18:55:00,51.2,42.0,29.97,WSW,240,10.0,15.0,72,0.00,,,0.00,weatherlink.com 1.10,2013-04-20 17:55:00,
2013-04-20 19:10:00,51.2,42.0,29.97,West,266,6.0,16.0,72,0.00,,,0.00,weatherlink.com 1.10,2013-04-20 18:10:00,
2013-04-20 19:25:00,51.0,42.0,29.96,West,264,7.0,19.0,72,0.00,,,0.00,weatherlink.com 1.10,2013-04-20 18:25:00,
2013-04-20 19:40:00,50.9,43.0,29.96,WNW,294,6.0,16.0,73,0.00,,,0.00,weatherlink.com 1.10,2013-04-20 18:40:00,
2013-04-20 19:55:00,50.5,42.0,29.96,NW,308,6.0,19.0,73,0.00,,,0.00,weatherlink.com 1.10,2013-04-20 18:55:00,
2013-04-20 20:10:00,49.9,42.0,29.96,SW,215,4.0,19.0,74,0.00,,,0.00,weatherlink.com 1.10,2013-04-20 19:10:00,
2013-04-20 20:25:00,49.3,41.0,29.95,WSW,248,12.0,18.0,74,0.00,,,0.00,weatherlink.com 1.10,2013-04-20 19:25:00,
2013-04-20 20:40:00,48.8,41.0,29.95,WNW,288,4.0,18.0,75,0.00,,,0.00,weatherlink.com 1.10,2013-04-20 19:40:00,
2013-04-20 20:55:00,48.3,41.0,29.95,NW,304,13.0,21.0,76,0.00,,,0.00,weatherlink.com 1.10,2013-04-20 19:55:00,
2013-04-20 21:10:00,48.1,41.0,29.95,West,278,6.0,18.0,77,0.00,,,0.00,weatherlink.com 1.10,2013-04-20 20:10:00,
2013-04-20 21:25:00,47.9,41.0,29.95,SW,227,6.0,18.0,78,0.00,,,0.00,weatherlink.com 1.10,2013-04-20 20:25:00,
2013-04-20 21:40:00,47.8,41.0,29.95,South,190,8.0,19.0,78,0.00,,,0.00,weatherlink.com 1.10,2013-04-20 20:40:00,
2013-04-20 21:55:00,47.5,41.0,29.95,West,265,5.0,17.0,79,0.00,,,0.00,weatherlink.com 1.10,2013-04-20 20:55:00,
2013-04-20 22:10:00,47.2,41.0,29.94,West,276,20.0,21.0,79,0.00,,,0.00,weatherlink.com 1.10,2013-04-20 21:10:00,
2013-04-20 22:25:00,47.0,41.0,29.94,West,281,11.0,22.0,80,0.00,,,0.00,weatherlink.com 1.10,2013-04-20 21:25:00,
2013-04-20 22:40:00,46.7,41.0,29.94,WSW,238,12.0,21.0,81,0.00,,,0.00,weatherlink.com 1.10,2013-04-20 21:40:00,
2013-04-20 22:55:00,46.6,41.0,29.93,West,260,8.0,19.0,81,0.00,,,0.00,weatherlink.com 1.10,2013-04-20 21:55:00,
2013-04-20 23:10:00,46.5,41.0,29.92,WNW,297,7.0,17.0,81,0.00,,,0.00,weatherlink.com 1.10,2013-04-20 22:10:00,
2013-04-20 23:25:00,46.5,41.0,29.92,SW,227,18.0,21.0,81,0.00,,,0.00,weatherlink.com 1.10,2013-04-20 22:25:00,
2013-04-20 23:40:00,46.3,41.0,29.91,SW,217,8.0,18.0,81,0.00,,,0.00,weatherlink.com 1.10,2013-04-20 22:40:00,
2013-04-20 23:55:00,46.3,41.0,29.91,WSW,250,9.0,17.0,81,0.00,,,0.00,weatherlink.com 1.10,2013-04-20 22:55:00,